GFSFLT1_500_spd_000.txt.gz
Wind_Speed
29 27 24 22 21 22 24 23 23 21 21 19 20 21 23 26 28 26 22 17 17 14 14 13 9 7 5 7 10 10 9 9 9
29 30 26 25 23 26 26 25 25 24 23 20 21 22 24 28 31 32 29 25 22 19 16 14 12 9 7 7 9 10 10 10 10
28 30 30 27 27 27 28 29 28 27 25 22 22 24 28 33 35 36 35 33 28 23 20 16 15 13 10 9 10 10 11 11 12
32 32 32 30 29 29 29 30 29 28 25 26 26 27 28 30 36 41 39 36 34 28 25 21 19 17 15 14 11 10 12 13 13
29 31 32 31 30 32 31 33 33 31 30 29 30 30 29 32 31 36 39 39 36 31 28 24 23 21 20 18 16 12 13 12 12
30 30 31 33 34 34 35 36 36 36 32 33 31 33 32 31 32 31 41 46 41 34 31 27 26 26 24 22 20 17 15 12 11
30 31 31 33 36 38 38 39 40 41 38 34 35 35 34 33 34 32 32 38 40 34 32 29 27 28 27 24 22 20 16 13 11
31 33 35 36 38 39 41 42 42 43 44 40 34 36 37 34 34 32 32 33 31 33 31 31 30 30 29 27 24 23 18 15 14
35 37 38 41 42 43 43 43 45 46 45 45 40 38 40 37 32 29 29 28 30 27 33 34 33 32 30 28 24 24 21 18 19
42 42 41 41 42 43 43 44 45 47 47 45 45 43 42 40 38 32 29 29 25 30 34 35 34 34 32 28 26 26 23 23 21
43 43 42 41 40 40 41 43 45 46 48 49 47 48 46 47 41 41 36 34 32 23 30 38 36 36 33 30 30 27 25 26 22
43 42 40 39 40 41 42 43 46 49 51 52 54 51 49 51 50 46 42 41 38 33 27 30 40 40 37 33 32 28 25 27 23
42 43 42 40 41 42 44 47 50 51 52 54 55 54 55 52 53 52 49 44 43 41 34 32 35 45 40 36 35 30 27 26 25
46 46 46 46 47 49 50 51 52 55 59 60 59 59 60 56 54 54 52 51 46 44 42 35 34 40 42 39 37 32 29 27 27
51 51 51 53 54 56 57 57 60 60 62 65 68 69 67 66 61 62 61 55 54 47 44 40 33 32 45 42 39 35 31 29 27
55 56 58 58 57 60 62 64 65 67 71 74 76 77 81 78 73 67 67 62 58 57 48 43 35 34 43 45 42 38 34 31 28
57 60 62 63 65 68 69 73 78 81 86 90 94 91 87 88 85 79 73 71 64 61 58 48 42 38 40 47 44 40 38 33 29
62 65 68 70 72 76 80 85 91 95 97 99 105 104 100 97 93 89 82 76 73 65 64 54 46 45 37 48 47 43 40 35 30
66 69 72 75 79 85 91 97 102 107 106 99 95 95 98 105 101 96 91 85 79 71 69 59 51 45 42 42 51 47 42 36 32
70 72 75 79 88 96 102 106 106 93 84 76 74 74 75 74 75 92 97 91 84 75 73 66 58 50 46 37 52 50 44 38 34

GFSFLT1_500_spd_006.txt.gz
Wind_Speed
16 16 16 16 16 16 16 17 17 16 15 14 14 15 16 16 13 15 18 22 24 23 23 20 15 16 17 13 12 13 14 13 12
19 17 17 18 18 17 19 18 18 20 18 16 16 18 18 19 17 16 17 20 24 24 26 25 21 18 19 17 13 12 13 13 14
16 16 17 18 18 18 18 19 20 21 23 23 22 21 22 21 21 20 21 21 18 21 24 29 30 24 21 19 16 13 13 12 13
17 16 17 18 19 20 21 22 22 23 24 24 24 25 24 24 22 21 21 24 23 21 22 25 32 32 26 22 20 17 15 12 13
15 17 18 19 20 22 24 25 26 25 25 24 25 25 25 25 25 24 23 24 25 25 20 21 21 35 32 26 25 21 18 14 12
17 18 21 24 25 26 26 27 27 26 27 24 23 23 23 26 26 26 24 23 27 28 27 23 23 26 38 30 28 25 23 19 15
19 21 24 27 28 28 29 28 27 27 26 25 25 25 23 23 25 25 26 26 26 29 29 29 31 27 38 32 30 28 25 23 19
21 23 25 27 29 32 32 28 25 25 25 26 26 26 27 26 26 28 28 27 27 29 33 32 31 21 32 31 31 31 27 25 23
25 27 28 29 32 33 31 29 28 27 27 28 29 28 28 29 30 30 32 32 31 30 31 30 22 14 23 30 29 30 30 28 26
28 30 31 31 33 33 31 30 33 34 36 33 32 32 32 33 33 32 33 36 34 31 29 29 24 20 15 35 31 28 30 30 30
31 32 32 34 35 35 34 35 37 38 39 39 38 38 38 39 38 37 36 36 37 36 34 32 30 27 23 19 39 33 31 32 32
33 33 34 34 37 38 38 39 41 41 42 42 44 45 46 47 48 46 44 42 39 40 41 40 38 32 29 28 22 34 35 33 32
36 35 35 38 41 42 41 42 42 43 43 44 46 49 51 52 52 53 54 50 48 44 44 44 45 40 35 32 28 32 40 35 34
36 36 39 42 44 43 43 43 45 45 45 47 50 52 55 56 57 59 60 59 56 54 51 48 47 47 43 36 35 33 30 36 35
38 39 42 45 46 46 47 48 49 50 52 56 58 58 59 61 62 64 65 65 64 61 60 57 53 50 49 43 38 37 36 36 39
41 43 45 47 48 50 51 53 53 56 61 63 63 64 65 68 73 77 80 82 81 76 69 67 62 57 54 50 44 39 38 35 43
44 46 47 49 50 52 55 56 59 64 66 68 69 74 76 82 90 97 99 102 98 93 89 80 72 66 61 55 51 44 39 38 45
46 47 49 50 52 54 57 62 64 66 69 73 81 87 94 98 106 109 104 102 106 108 106 97 85 76 69 64 55 49 43 42 43
47 48 50 51 53 57 62 65 67 70 72 81 90 101 109 104 100 86 79 78 78 88 96 101 98 86 77 71 64 57 51 46 43
49 49 49 51 55 60 65 67 68 73 78 90 97 99 91 98 85 59 44 51 63 67 81 91 92 96 88 80 69 63 58 50 48

GFSFLT1_500_spd_009.txt.gz
Wind_Speed
18 15 14 14 16 16 16 15 15 15 12 12 12 11 12 13 14 14 14 15 14 16 18 19 19 17 15 16 14 13 16 15 13
18 15 13 14 14 15 15 17 18 19 19 16 15 14 14 16 15 15 15 16 17 14 13 17 19 22 21 18 17 16 16 16 16
16 11 11 13 15 16 17 18 19 20 21 21 19 17 16 15 15 17 16 18 18 16 15 14 17 22 24 24 20 19 16 15 16
17 13 14 14 15 18 20 21 20 20 19 19 19 17 17 16 16 15 16 18 20 21 20 15 14 15 23 28 24 21 19 16 16
15 14 16 17 19 21 21 21 22 22 21 19 18 16 15 15 17 17 16 18 20 20 22 23 18 20 20 22 29 24 23 19 17
15 16 17 19 21 21 22 24 25 24 22 21 20 18 17 16 15 16 18 19 22 22 22 25 22 22 23 22 25 28 26 24 20
18 19 20 22 22 23 23 25 25 23 22 22 22 23 22 21 20 19 19 19 21 24 26 26 28 25 24 25 27 31 26 27 24
21 22 24 25 26 26 26 26 27 24 24 24 26 27 27 26 25 25 24 23 24 25 27 28 28 25 23 24 24 27 26 26 27
24 24 26 28 28 28 28 28 28 27 27 28 31 31 31 31 30 29 29 29 27 27 30 30 28 26 22 20 19 23 21 24 28
27 27 28 29 31 30 29 29 31 32 32 33 34 33 33 33 34 35 34 34 33 30 33 34 32 29 24 20 17 24 24 22 25
29 30 31 32 33 32 31 33 34 35 35 36 36 36 37 37 37 38 40 40 41 40 36 37 36 35 31 26 22 19 38 33 28
31 31 33 34 34 33 34 36 37 36 38 38 38 39 40 40 41 43 44 46 46 45 45 43 41 39 38 35 29 26 25 35 42
33 33 35 36 35 35 37 39 37 38 38 38 40 41 43 44 45 48 50 51 52 53 51 49 48 46 43 43 37 33 32 27 32
36 36 37 37 37 39 41 40 39 39 41 42 44 47 49 52 55 56 56 57 57 58 57 58 56 54 50 48 45 38 38 35 30
38 38 37 37 41 42 41 41 41 42 44 45 47 49 53 56 56 56 58 59 61 63 64 65 63 62 58 55 52 46 43 41 37
41 39 40 42 43 43 42 42 44 46 48 50 52 54 58 59 62 64 66 72 77 79 79 78 77 72 66 64 60 54 47 45 44
42 42 43 43 44 44 44 45 47 49 53 55 57 60 63 64 67 70 77 83 89 96 101 100 98 92 83 72 67 61 54 49 48
43 43 44 44 45 45 47 47 50 53 56 61 65 66 67 68 70 78 89 98 106 105 103 102 101 101 100 90 75 68 63 55 52
44 44 45 45 45 47 47 50 53 56 60 66 69 71 73 79 79 84 99 95 94 89 77 72 74 88 95 97 91 77 69 62 56
45 45 45 46 46 47 50 53 56 58 65 68 70 72 77 85 93 99 78 84 63 56 56 57 54 64 84 91 97 88 77 68 61

GFSFLT1_500_spd_015.txt.gz
Wind_Speed
17 17 10 4 6 7 9 10 9 8 4 2 2 2 3 4 5 5 6 6 7 9 10 9 8 12 14 16 14 11 12 10 12
19 15 8 5 6 8 11 12 12 11 9 6 4 3 3 3 3 5 7 8 8 8 10 12 15 13 2 9 14 15 13 12 12
18 18 9 8 8 10 13 14 12 11 11 9 8 6 5 5 6 6 6 8 8 9 10 11 14 13 12 9 16 12 18 17 15
17 18 14 11 11 12 14 15 14 12 11 10 10 8 6 6 7 8 7 9 10 10 11 12 13 14 12 9 6 18 17 19 20
16 16 16 15 14 14 15 17 17 14 13 13 9 8 9 9 10 12 11 11 13 12 12 13 13 13 16 12 9 11 18 20 22
18 16 15 15 17 18 18 18 19 18 15 14 12 11 11 12 12 14 15 15 15 16 16 15 15 15 16 18 17 17 16 21 18
21 19 16 15 16 18 20 21 21 20 18 16 15 15 16 17 18 17 16 18 18 19 19 19 20 18 16 17 18 18 21 20 16
24 23 20 18 17 18 20 21 22 21 20 19 18 19 21 21 21 20 19 18 20 21 22 21 21 22 23 23 20 20 20 20 19
23 24 23 22 21 21 21 22 23 24 24 23 23 23 24 23 23 22 20 20 21 21 22 23 25 25 24 26 27 23 22 20 20
23 24 24 24 23 23 23 24 25 26 26 25 26 27 27 26 25 23 23 23 23 23 24 25 26 26 27 28 28 29 26 25 20
24 25 26 26 25 25 25 27 27 28 28 29 30 31 30 28 27 27 26 26 26 27 28 29 30 32 34 33 31 31 31 29 28
28 28 28 28 28 28 28 28 29 30 29 30 33 34 31 31 31 30 30 29 30 31 32 33 35 37 39 40 39 37 35 34 33
32 31 31 31 30 30 30 30 30 31 32 35 36 34 32 32 33 33 34 33 34 35 36 38 40 41 43 45 44 44 42 42 39
36 34 34 33 32 31 32 32 31 32 35 37 36 34 34 34 35 36 36 37 38 39 40 41 44 46 48 49 49 49 50 48 47
39 38 36 36 34 33 33 33 34 35 34 35 36 35 34 36 37 38 40 41 42 43 46 47 49 49 50 51 53 55 54 54 52
41 40 39 38 36 34 34 35 35 34 33 34 36 36 36 38 40 42 43 45 46 48 51 54 55 56 56 55 56 59 61 60 60
43 41 40 39 38 35 35 35 36 35 34 35 36 36 38 40 42 45 46 48 50 53 56 57 59 60 62 65 67 72 74 74 73
43 41 41 41 39 36 35 35 36 36 36 36 37 37 39 40 41 45 48 50 53 56 59 63 65 67 70 73 78 81 86 90 87
42 41 42 42 39 37 37 36 36 38 38 37 38 41 42 44 44 44 49 52 56 60 64 67 71 77 81 84 90 90 81 70 66
41 43 44 43 39 38 38 37 38 38 38 39 41 43 45 48 50 51 51 55 60 63 67 70 77 82 89 92 78 69 69 69 71